Location: Azul
(36.7830°S, 59.8500°W)
Time: 16:26:55
(UTC-03:00)

X-37B - Visible Passes

Search period start: 31 July 2021 00:00
Search period end: 10 August 2021 00:00
Orbit: 383 x 392 km, 45.0° (Epoch: 01 July)

Date Brightness Start Highest point End Pass type
(mag) Time Alt. Az. Time Alt. Az. Time Alt. Az.
31 Jul 2.6 19:14:36 10° SW 19:16:58 18° S 19:18:21 15° SSE visible
01 Aug 2.7 19:53:12 10° SW 19:54:58 19° S 19:54:58 19° S visible
02 Aug 2.5 18:54:45 10° SW 18:57:07 18° S 18:59:20 11° SE visible
02 Aug 3.7 20:31:18 10° SW 20:31:38 12° SW 20:31:38 12° SW visible
03 Aug 1.9 19:33:02 10° SW 19:35:50 26° SSE 19:36:03 26° SSE visible
04 Aug 2.4 20:11:06 10° SW 20:12:51 28° SW 20:12:51 28° SW visible
05 Aug 1.3 19:12:49 10° SW 19:15:53 37° SSE 19:17:28 22° ESE visible
05 Aug 4.2 20:49:34 10° WSW 20:49:46 11° W 20:49:46 11° W visible
06 Aug 0.8 19:51:00 10° WSW 19:54:13 67° NNW 19:54:32 61° N visible
07 Aug 0.6 18:52:38 10° SW 18:55:51 64° SSE 18:59:01 10° ENE visible
07 Aug 3.4 20:30:06 10° W 20:31:47 16° NW 20:31:47 16° NW visible
08 Aug 2.3 19:31:05 10° WSW 19:34:01 32° NW 19:36:54 10° NNE visible
